Showing default

CARTOSAT 3, 44804

Orbit data source: Space-Track

CARTOSAT 3, 44804 is a payload satellite owned by ISRO (IN) in SSO that was launched on Wed, 27 Nov 2019 UTC via a PSLV-XL launch vehicle from the Sirharikota (SRI). Payloads include a variety of satellites, spacecraft, and rockets equipped with specific instruments for various scientific and technological missions. These include communications satellites like Starlink; space stations such as the ISS; scientific satellites like the Hubble; Earth observation satellites from companies like Planet Labs, Umbra, and HawkEye 360; GPS; miniature CubeSats for education and research; and military/defense satellites.

Loading next visibility...
CARTOSAT 3 details
Identifier
44804, 2019-081A
Orbit
SSO
Last TLE update7 hours ago
Origin
Flag of INISRO (IN / IND)
ManufacturerISRO
MissionOperational Civil Imaging
Bus & MotorIRS-2, AOCS
Mass1,625 kg wet, ~1,500 kg dry
Launch date (UTC)
2019-11-27 (5 years ago)
Launch vehicle
PSLV-XL
Launch site
Sirharikota (SRI)
Object type
Payload
Rocket body
Debris
Shape & HBRHex Cyl + 2 Pan, Unknown HBR
Radar Cross Section9.780 m², Large (>1 m²)

Expand to show TLE details & history

TLE from 7 hours ago
0 CARTOSAT 3
1 44804U 19081A   24361.17544427  .00009840  00000-0  46877-3 0  9995
2 44804  97.5082  58.1150 0014328 226.1390 133.8662 15.19243111281732
Epoch: 2024-12-26T04:12Z
Definitive object data (Epoch: 2024-12-26T04:12:38.384Z)
Latitude
Longitude-100.20354°
Altitude518.059 km
Speed7.601 km/s
True Right ascension03h 52m 27s
True Declination0° 00' 00"
Sunlit
Object was in full shadow at TLE epoch
Visualization TLE readout
Latitude66.3264°
Longitude97.47449°
Altitude523.364 km
Speed7.606 km/s
Apparent Right ascension20h 35m 14s
Apparent Declination20° 14' 43"
Sunlit
Object is in daylight
Visualization observer readout
Local Sidereal Time10:23:00
Azimuth27.921° NE
Elevation-24.801°
Doppler factor1
Orbital elements
Apogee altitude514.96 km
Perigee altitude495.236 km
Semi-major axis6,883.235 km
Eccentricity0.0014328
Inclination97.5082°
RAAN58.115°
Arg. of periapsis226.139°
True anomaly133.98443°
Mean anomaly133.8662°
Eccentric anomaly133.92533°
Mean motion3.80062 °/min
BSTAR0.00046877
Orbital period94.72 mins
Loading maneuver chart data...

CARTOSAT 3 Visibility forecast

Observer location: undefined°, undefined

Span
Click to sort rows by Start time (UTC) header in descending order
Start Az.
Max El. time (UTC)
Max El. Az.
Max El.
End time (UTC)
End Az.
5 mins2024-12-26 17:25:43.407Z342.424° N2024-12-26 17:27:43.407Z291.773° WNW29.716°2024-12-26 17:30:43.407Z224.627° SW
5 mins2024-12-27 04:03:43.407Z165.4° S2024-12-27 04:05:43.407Z152.062° SSE44.481°2024-12-27 04:08:43.407Z348.805° N
|